This demonstration page uses our WeatherBlox Daily Observations layout. Learn more.

Left ArrowRight Arrow

34.02893, -84.19858

Hourly Observations for March 19, 2016

Temp ( °F °C ) Dew Point ( °F °C ) Humidity (%) Winds ( mph kmh ) Pressure ( in mb ) Visibility ( mi km ) Precip ( " mm )
12:53 am 00:53 Partly Cloudy 64 17.8 54 12.2 70 70 SSW 13 20 29.85 1011 10 16 0.00 0.00
1:53 am 01:53 Clear 63 17.2 54 12.2 73 73 SSW 10 17 29.85 1011 10 16 0.00 0.00
2:53 am 02:53 Mostly Clear 62 16.7 54 12.2 75 75 SW 8 13 29.83 1010 10 16 0.00 0.00
3:53 am 03:53 Partly Cloudy 61 16.1 54 12.2 78 78 SW 13 20 29.83 1010 10 16 0.00 0.00
4:53 am 04:53 Clear 59 15 55 12.8 87 87 SW 7 11 29.83 1010 10 16 0.00 0.00
5:53 am 05:53 Clear 56 13.3 54 12.2 93 93 SW 6 9 29.84 1011 10 16 0.00 0.00
6:53 am 06:53 Clear 56 13.3 54 12.2 93 93 SW 6 9 29.85 1011 10 16 0.00 0.00
7:53 am 07:53 Cloudy 58 14.4 56 13.3 93 93 SW 7 11 29.88 1012 10 16 0.00 0.00
8:53 am 08:53 Cloudy 59 15 56 13.3 90 90 Calm 29.88 1012 10 16 0.00 0.00
9:53 am 09:53 Cloudy 61 16.1 55 12.8 81 81 W 8 13 29.89 1012 10 16 0.00 0.00
10:53 am 10:53 Partly Cloudy 66 18.9 55 12.8 68 68 NW 8 13 29.88 1012 10 16 0.00 0.00
11:53 am 11:53 Mostly Cloudy 67 19.4 55 12.8 66 66 W 7 11 29.85 1011 10 16 0.00 0.00
12:53 pm 12:53 Cloudy 68 20 55 12.8 63 63 W 12 19 29.86 1011 10 16 0.00 0.00
1:53 pm 13:53 Mostly Cloudy 70 21.1 56 13.3 61 61 WNW 13 20 29.85 1011 10 16 0.00 0.00
2:53 pm 14:53 Cloudy 70 21.1 56 13.3 61 61 W 10 17 29.83 1010 10 16 0.00 0.00
3:53 pm 15:53 Cloudy 70 21.1 55 12.8 59 59 NW 13 20 29.83 1010 10 16 0.00 0.00
4:53 pm 16:53 Mostly Cloudy 69 20.6 55 12.8 61 61 NW 15 24 29.83 1010 10 16 0.00 0.00
5:53 pm 17:53 Mostly Cloudy 66 19 55 13 68 68 NW 15 24 29.83 1010 10 16 0.00 0.00
6:53 pm 18:53 Mostly Sunny 65 18.3 52 11.1 63 63 NW 14 22 29.85 1011 10 16 0.00 0.00
7:53 pm 19:53 Cloudy 63 17.2 44 6.7 50 50 NW 9 15 29.87 1012 10 16 0.00 0.00
8:53 pm 20:53 Mostly Clear 61 16.1 42 5.6 50 50 WNW 9 15 29.88 1012 10 16 0.00 0.00
10:53 pm 22:53 Clear 57 13.9 38 3.3 49 49 NW 14 22 29.91 1013 10 16 0.00 0.00

Powered by AerisWeather